EW5773 Weather Reports


Display with metric or nautical units.
time (UTC)temp
F
wind
direction
speed
MPH
gust
MPH
rain 1hr
in
rain 24hr
in
rain mn
in
humidity
%
barometer
mb
20260906051516 57 68 2.0 10.0 0.00 0.00 0.00 78 1023.0
20260906050117 57 40 1.0 4.0 0.00 0.00 0.00 78 1023.2
20260906044510 56 40 1.0 3.0 0.00 0.00 0.00 79 1023.5
20260906043011 56 37 0.0 4.0 0.00 0.00 0.00 79 1023.4
20260906041509 57 36 0.0 3.0 0.00 0.00 0.00 79 1023.2
20260906040012 57 37 1.0 4.0 0.00 0.00 0.00 79 1023.4
20260906034506 56 36 1.0 5.0 0.00 0.00 0.00 79 1023.4
20260906033006 57 36 2.0 9.0 0.00 0.00 0.00 79 1023.3
20260906031506 57 32 3.0 6.0 0.00 0.00 0.00 79 1023.3
20260906030005 56 22 2.0 5.0 0.00 0.00 0.00 79 1023.7
20260906024504 57 15 1.0 4.0 0.00 0.00 0.00 79 1023.9
20260906023004 57 15 2.0 4.0 0.00 0.00 0.00 78 1024.1
20260906021503 57 13 2.0 4.0 0.00 0.00 0.00 78 1024.1
20260906020003 57 13 1.0 3.0 0.00 0.00 0.00 77 1024.1
20260906014524 57 13 2.0 4.0 0.00 0.00 0.00 77 1024.1
20260906013019 57 13 2.0 5.0 0.00 0.00 0.00 76 1024.2
20260906011517 57 11 2.0 5.0 0.00 0.00 0.00 76 1024.4
20260906010015 58 11 2.0 3.0 0.00 0.00 0.00 75 1024.6
20260906004515 58 11 1.0 2.0 0.00 0.00 0.00 74 1024.7
20260906003014 58 11 2.0 3.0 0.00 0.00 0.00 73 1024.6
20260906001513 59 11 2.0 4.0 0.00 0.00 0.00 73 1024.7
20260906000011 59 13 3.0 5.0 0.00 0.00 0.00 72 1024.6
20260905234508 60 17 2.0 4.0 0.00 0.00 0.00 70 1024.6
20260905233007 60 17 3.0 4.0 0.00 0.00 0.00 70 1024.7
20260905231506 60 17 2.0 3.0 0.00 0.00 0.00 70 1024.5
20260905230005 60 17 2.0 4.0 0.00 0.00 0.00 69 1024.7
20260905224506 61 18 2.0 3.0 0.00 0.00 0.00 69 1024.7
20260905223007 61 19 1.0 3.0 0.00 0.00 0.00 68 1024.9
20260905221503 62 19 1.0 4.0 0.00 0.00 0.00 67 1024.8
20260905220111 62 19 2.0 5.0 0.00 0.00 0.00 66 1024.5
20260905214516 62 19 1.0 3.0 0.00 0.00 0.00 66 1024.5
20260905213015 63 19 2.0 4.0 0.00 0.00 0.00 64 1024.7
20260905211514 64 19 1.0 3.0 0.00 0.00 0.00 63 1024.8
20260905210013 64 19 0.0 3.0 0.00 0.00 0.00 62 1024.7
20260905204511 65 19 1.0 4.0 0.00 0.00 0.00 60 1024.4
20260905203010 66 19 2.0 4.0 0.00 0.00 0.00 59 1024.3
20260905201507 66 19 2.0 4.0 0.00 0.00 0.00 58 1024.2
20260905200008 67 21 3.0 5.0 0.00 0.00 0.00 56 1024.3
20260905194506 68 19 3.0 5.0 0.00 0.00 0.00 54 1024.2
20260905193004 69 24 3.0 5.0 0.00 0.00 0.00 52 1024.1
20260905191505 70 25 2.0 5.0 0.00 0.00 0.00 51 1023.9
20260905190008 70 21 2.0 5.0 0.00 0.00 0.00 50 1023.8
20260905184603 71 22 1.0 5.0 0.00 0.00 0.00 49 1023.8
20260905183023 72 26 4.0 6.0 0.00 0.00 0.00 48 1023.7
20260905181524 73 36 2.0 6.0 0.00 0.00 0.00 46 1023.7
20260905180113 74 5 2.0 4.0 0.00 0.00 0.00 44 1023.8
20260905174513 75 355 2.0 5.0 0.00 0.00 0.00 41 1023.8
20260905173011 76 15 2.0 6.0 0.00 0.00 0.00 41 1023.6
20260905171515 76 360 2.0 6.0 0.00 0.00 0.00 41 1023.7
20260905170012 76 355 1.0 8.0 0.00 0.00 0.00 43 1023.6
20260905164509 77 5 0.0 4.0 0.00 0.00 0.00 43 1023.6
20260905163006 77 5 2.0 9.0 0.00 0.00 0.00 43 1023.7
20260905161507 77 340 3.0 9.0 0.00 0.00 0.00 42 1023.8
20260905160006 77 315 2.0 5.0 0.00 0.00 0.00 42 1023.7
20260905154502 78 293 1.0 7.0 0.00 0.00 0.00 41 1023.8
20260905153019 78 321 3.0 6.0 0.00 0.00 0.00 41 1023.8
20260905151520 79 69 1.0 5.0 0.00 0.00 0.00 41 1024.0
20260905150018 77 111 3.0 6.0 0.00 0.00 0.00 44 1024.1
20260905144527 77 321 2.0 5.0 0.00 0.00 0.00 44 1024.2
20260905143014 77 240 2.0 8.0 0.00 0.00 0.00 43 1024.1
20260905141515 78 293 2.0 5.0 0.00 0.00 0.00 43 1024.1
20260905140020 78 309 2.0 4.0 0.00 0.00 0.00 43 1024.3
20260905134509 75 307 0.0 10.0 0.00 0.00 0.00 46 1024.5
20260905133036 75 327 3.0 6.0 0.00 0.00 0.00 46 1024.5
20260905131505 74 327 0.0 6.0 0.00 0.00 0.00 47 1024.4
20260905130006 74 296 5.0 10.0 0.00 0.00 0.00 48 1024.3
20260905124506 74 323 4.0 8.0 0.00 0.00 0.00 49 1024.5
20260905123004 73 19 1.0 4.0 0.00 0.00 0.00 51 1024.7
20260905121505 72 320 1.0 9.0 0.00 0.00 0.00 52 1024.7
20260905120009 72 325 0.0 9.0 0.00 0.00 0.00 54 1024.8
20260905114611 72 323 5.0 10.0 0.00 0.00 0.00 53 1024.7
20260905113018 70 17 3.0 9.0 0.00 0.00 0.00 56 1024.8
20260905111530 71 257 2.0 10.0 0.00 0.00 0.00 54 1024.8
20260905110024 70 274 3.0 9.0 0.00 0.00 0.00 60 1024.8
20260905104559 69 338 4.0 13.0 0.00 0.00 0.00 61 1024.9
20260905103025 68 344 4.0 10.0 0.00 0.00 0.00 63 1024.8
20260905101516 67 336 0.0 10.0 0.00 0.00 0.00 67 1024.8
20260905100016 67 336 5.0 12.0 0.00 0.00 0.00 68 1024.8
20260905094515 66 304 6.0 13.0 0.00 0.00 0.00 68 1024.8
20260905093014 66 298 5.0 11.0 0.00 0.00 0.00 70 1024.6
20260905091513 65 319 3.0 9.0 0.00 0.00 0.00 71 1024.5
20260905090012 64 329 4.0 11.0 0.00 0.00 0.00 72 1024.5
20260905084512 64 301 4.0 9.0 0.00 0.00 0.00 74 1024.4
20260905083112 63 288 7.0 12.0 0.00 0.00 0.00 75 1024.4
20260905081508 63 311 7.0 12.0 0.00 0.00 0.00 78 1024.2
20260905080006 62 271 8.0 11.0 0.00 0.00 0.00 79 1024.2
20260905074507 62 310 4.0 10.0 0.00 0.00 0.00 82 1023.9
20260905073005 61 308 4.0 9.0 0.00 0.00 0.00 84 1023.9
20260905071507 60 294 4.0 8.0 0.00 0.00 0.00 87 1023.7
20260905070016 59 305 5.0 8.0 0.00 0.00 0.00 89 1023.6
20260905064510 58 276 1.0 4.0 0.00 0.00 0.00 90 1023.6
20260905063001 57 275 3.0 6.0 0.00 0.00 0.00 90 1023.3
20260905061603 57 277 1.0 3.0 0.00 0.00 0.00 90 1023.3
20260905060103 56 275 1.0 4.0 0.00 0.00 0.00 89 1023.0
20260905053059 57 275 1.0 4.0 0.00 0.00 0.00 89 1022.8